This is the latest recevied weather packets stored in our database for station/object W1ERB-13. If no packets are shown the sender has not sent any weather packets the latest 10 day(s).
| Time | Temp. | Humidity | Pressure | Rain* | Wind** | Luminosity | Snow |
|---|---|---|---|---|---|---|---|
| 1778113422 | 13.89° C | 98% | 1006.4 hPa | 0 mm | - | 0 W/m² | - |
| 1778113119 | 13.89° C | 98% | 1006.6 hPa | 0 mm | - | 0 W/m² | - |
| 1778112816 | 13.89° C | 98% | 1006.5 hPa | 0 mm | - | 0 W/m² | - |
| 1778112512 | 13.89° C | 98% | 1006.5 hPa | 0 mm | - | 0 W/m² | - |
| 1778112208 | 13.89° C | 98% | 1006.6 hPa | 0 mm | - | 0 W/m² | - |
| 1778111904 | 13.89° C | 98% | 1006.8 hPa | 0 mm | - | 0 W/m² | - |
| 1778111601 | 13.89° C | 98% | 1006.6 hPa | 0 mm | - | 0 W/m² | - |
| 1778111297 | 13.89° C | 98% | 1006.9 hPa | 0 mm | - | 0 W/m² | - |
| 1778110995 | 13.89° C | 98% | 1006.7 hPa | 0 mm | - | 1 W/m² | - |
| 1778110692 | 13.89° C | 98% | 1006.6 hPa | 0 mm | - | 1 W/m² | - |
| 1778110388 | 13.89° C | 98% | 1006.8 hPa | 0 mm | - | 1 W/m² | - |
| 1778110085 | 13.89° C | 98% | 1006.6 hPa | 0 mm | - | 2 W/m² | - |
| 1778109780 | 13.89° C | 98% | 1006.6 hPa | 0 mm | - | 3 W/m² | - |
| 1778109472 | 13.89° C | 98% | 1006.5 hPa | 0 mm | - | 4 W/m² | - |
| 1778109169 | 13.89° C | 98% | 1006.4 hPa | 0 mm | - | 6 W/m² | - |
| 1778108866 | 13.89° C | 98% | 1006.4 hPa | 0 mm | - | 11 W/m² | - |
| 1778108563 | 13.89° C | 98% | 1006.4 hPa | 0 mm | - | 15 W/m² | - |
| 1778108254 | 13.89° C | 98% | 1006.6 hPa | 0 mm | - | 18 W/m² | - |
| 1778107951 | 13.89° C | 98% | 1006.4 hPa | 0 mm | - | 21 W/m² | - |
| 1778107647 | 13.89° C | 98% | 1006.3 hPa | 0 mm | - | 19 W/m² | - |
| 1778107345 | 13.89° C | 98% | 1006.4 hPa | 0 mm | - | 22 W/m² | - |
| 1778107041 | 13.89° C | 98% | 1006.2 hPa | 0 mm | - | 24 W/m² | - |
| 1778106737 | 13.89° C | 98% | 1006.2 hPa | 0 mm | - | 25 W/m² | - |
| 1778106434 | 13.89° C | 98% | 1006.2 hPa | 0 mm | - | 25 W/m² | - |
| 1778106129 | 13.89° C | 98% | 1006.1 hPa | 0 mm | - | 28 W/m² | - |
* Rain latest hour (hover to see other rain measurements)
** Current wind speed in m/s (hover to see current wind gust speed)